Time,TemperatureF,DewpointF,PressureIn,WindDirection,WindDirectionDegrees,WindSpeedMPH,WindSpeedGustMPH,Humidity,HourlyPrecipIn,Conditions,Clouds,dailyrainin,SoftwareType,DateUTC
2013-06-20 00:01:00,82.6,74.7,30.05,NW,310,0.0,1.0,77,0.00,,,0.00,meteohub,2013-06-20 04:01:00,
2013-06-20 00:02:00,82.4,74.5,30.05,NW,310,0.0,1.0,77,0.00,,,0.00,meteohub,2013-06-20 04:02:00,
2013-06-20 00:03:00,82.4,74.5,30.05,NW,310,0.0,1.0,77,0.00,,,0.00,meteohub,2013-06-20 04:03:00,
2013-06-20 00:06:00,82.4,74.5,30.05,NW,310,0.0,1.0,77,0.00,,,0.00,meteohub,2013-06-20 04:06:00,
2013-06-20 00:11:00,82.2,74.7,30.05,NW,310,0.0,0.0,78,0.00,,,0.00,meteohub,2013-06-20 04:11:00,
2013-06-20 00:16:00,82.2,74.7,30.05,NW,310,0.0,0.0,78,0.00,,,0.00,meteohub,2013-06-20 04:16:00,
2013-06-20 00:22:00,82.0,74.5,30.05,NW,310,0.0,0.0,78,0.00,,,0.00,meteohub,2013-06-20 04:22:00,
2013-06-20 00:27:00,82.0,74.5,30.05,NW,310,0.0,0.0,78,0.00,,,0.00,meteohub,2013-06-20 04:27:00,
2013-06-20 00:32:00,82.0,74.5,30.05,NW,310,0.0,0.0,78,0.00,,,0.00,meteohub,2013-06-20 04:32:00,
2013-06-20 00:37:00,81.9,74.7,30.05,NW,310,0.0,0.0,79,0.00,,,0.00,meteohub,2013-06-20 04:37:00,
2013-06-20 00:42:00,81.7,74.5,30.05,NW,310,0.0,0.0,79,0.00,,,0.00,meteohub,2013-06-20 04:42:00,
2013-06-20 00:47:00,81.5,74.7,30.05,NW,310,0.0,0.0,80,0.00,,,0.00,meteohub,2013-06-20 04:47:00,
2013-06-20 00:52:00,81.3,74.5,30.05,NW,310,0.0,0.0,80,0.00,,,0.00,meteohub,2013-06-20 04:52:00,
2013-06-20 00:57:00,81.1,74.7,30.05,NW,310,0.0,0.0,81,0.00,,,0.00,meteohub,2013-06-20 04:57:00,
2013-06-20 01:02:00,81.1,74.7,30.05,NW,310,0.0,0.0,81,0.00,,,0.00,meteohub,2013-06-20 05:02:00,
2013-06-20 01:07:00,81.1,74.7,30.05,NW,310,0.0,1.0,81,0.00,,,0.00,meteohub,2013-06-20 05:07:00,
2013-06-20 01:12:00,81.0,74.7,30.04,NW,310,0.0,1.0,81,0.00,,,0.00,meteohub,2013-06-20 05:12:00,
2013-06-20 01:17:00,81.0,74.7,30.04,NW,310,0.0,1.0,81,0.00,,,0.00,meteohub,2013-06-20 05:17:00,
2013-06-20 01:22:00,80.8,74.5,30.04,NW,310,0.0,0.0,81,0.00,,,0.00,meteohub,2013-06-20 05:22:00,
2013-06-20 01:27:00,80.8,74.5,30.04,NW,310,0.0,0.0,81,0.00,,,0.00,meteohub,2013-06-20 05:27:00,
2013-06-20 01:32:00,80.4,74.5,30.05,NW,310,0.0,0.0,82,0.00,,,0.00,meteohub,2013-06-20 05:32:00,
2013-06-20 01:37:00,80.4,74.5,30.04,NW,310,0.0,0.0,82,0.00,,,0.00,meteohub,2013-06-20 05:37:00,
2013-06-20 01:42:00,80.2,74.3,30.04,NW,310,0.0,0.0,82,0.00,,,0.00,meteohub,2013-06-20 05:42:00,
2013-06-20 01:47:00,80.2,74.3,30.04,NW,310,0.0,0.0,82,0.00,,,0.00,meteohub,2013-06-20 05:47:00,
2013-06-20 01:52:00,80.2,74.3,30.04,NW,310,0.0,0.0,82,0.00,,,0.00,meteohub,2013-06-20 05:52:00,
2013-06-20 01:57:00,80.1,74.1,30.04,NW,310,0.0,0.0,82,0.00,,,0.00,meteohub,2013-06-20 05:57:00,
2013-06-20 02:02:00,80.1,74.5,30.04,NW,310,0.0,0.0,83,0.00,,,0.00,meteohub,2013-06-20 06:02:00,
2013-06-20 02:07:00,79.9,74.3,30.04,NW,310,0.0,0.0,83,0.00,,,0.00,meteohub,2013-06-20 06:07:00,
2013-06-20 02:12:00,79.9,74.3,30.04,NW,310,0.0,0.0,83,0.00,,,0.00,meteohub,2013-06-20 06:12:00,
2013-06-20 02:17:00,79.7,74.1,30.04,NW,310,0.0,0.0,83,0.00,,,0.00,meteohub,2013-06-20 06:17:00,
2013-06-20 02:22:00,79.7,74.1,30.04,NW,310,0.0,0.0,83,0.00,,,0.00,meteohub,2013-06-20 06:22:00,
2013-06-20 02:27:00,79.7,74.1,30.04,NW,310,0.0,0.0,83,0.00,,,0.00,meteohub,2013-06-20 06:27:00,
2013-06-20 02:32:00,79.5,73.9,30.04,NW,310,0.0,0.0,83,0.00,,,0.00,meteohub,2013-06-20 06:32:00,
2013-06-20 02:37:00,79.5,73.9,30.04,NW,310,0.0,0.0,83,0.00,,,0.00,meteohub,2013-06-20 06:37:00,
2013-06-20 02:42:00,79.5,73.9,30.03,NW,310,0.0,0.0,83,0.00,,,0.00,meteohub,2013-06-20 06:42:00,
2013-06-20 02:47:00,79.3,74.1,30.03,NW,310,0.0,0.0,84,0.00,,,0.00,meteohub,2013-06-20 06:47:00,
2013-06-20 02:52:00,79.3,74.1,30.03,NW,310,0.0,0.0,84,0.00,,,0.00,meteohub,2013-06-20 06:52:00,
2013-06-20 02:57:00,79.3,74.1,30.02,NW,310,0.0,0.0,84,0.00,,,0.00,meteohub,2013-06-20 06:57:00,
2013-06-20 03:02:00,79.2,74.3,30.03,NW,310,0.0,0.0,85,0.00,,,0.00,meteohub,2013-06-20 07:02:00,
2013-06-20 03:07:00,79.2,74.3,30.03,NW,310,0.0,0.0,85,0.00,,,0.00,meteohub,2013-06-20 07:07:00,
2013-06-20 03:12:00,79.2,74.3,30.03,NW,310,0.0,0.0,85,0.00,,,0.00,meteohub,2013-06-20 07:12:00,
2013-06-20 03:17:00,79.3,74.5,30.02,NW,310,0.0,0.0,85,0.00,,,0.00,meteohub,2013-06-20 07:17:00,
2013-06-20 03:22:00,79.3,74.5,30.03,NW,310,0.0,0.0,85,0.00,,,0.00,meteohub,2013-06-20 07:22:00,
2013-06-20 03:28:00,79.3,74.8,30.02,NW,310,0.0,0.0,86,0.00,,,0.00,meteohub,2013-06-20 07:28:00,
2013-06-20 03:33:00,79.5,75.0,30.03,NW,310,0.0,0.0,86,0.00,,,0.00,meteohub,2013-06-20 07:33:00,
2013-06-20 03:38:00,79.5,75.0,30.03,NW,310,0.0,0.0,86,0.00,,,0.00,meteohub,2013-06-20 07:38:00,
2013-06-20 03:43:00,79.5,75.0,30.02,NW,310,0.0,0.0,86,0.00,,,0.00,meteohub,2013-06-20 07:43:00,
2013-06-20 03:48:00,79.5,75.0,30.02,NW,310,0.0,0.0,86,0.00,,,0.00,meteohub,2013-06-20 07:48:00,
2013-06-20 03:53:00,79.5,75.0,30.02,NW,310,0.0,0.0,86,0.00,,,0.00,meteohub,2013-06-20 07:53:00,
2013-06-20 03:58:00,79.5,75.0,30.02,NW,310,0.0,0.0,86,0.00,,,0.00,meteohub,2013-06-20 07:58:00,
2013-06-20 04:03:00,79.5,74.7,30.02,NW,310,0.0,0.0,85,0.00,,,0.00,meteohub,2013-06-20 08:03:00,
2013-06-20 04:08:00,79.9,75.0,30.03,NW,310,1.0,1.0,85,0.00,,,0.00,meteohub,2013-06-20 08:08:00,
2013-06-20 04:13:00,80.1,75.2,30.02,ENE,60,1.0,2.0,85,0.00,,,0.00,meteohub,2013-06-20 08:13:00,
2013-06-20 04:18:00,80.8,75.9,30.02,East,82,1.0,4.0,85,0.00,,,0.00,meteohub,2013-06-20 08:18:00,
2013-06-20 04:24:00,81.1,75.9,30.02,East,90,7.0,8.0,84,0.00,,,0.00,meteohub,2013-06-20 08:24:00,
2013-06-20 04:29:00,81.7,76.6,30.02,East,90,6.0,9.0,85,0.00,,,0.00,meteohub,2013-06-20 08:29:00,
2013-06-20 04:34:00,81.9,76.8,30.02,East,92,1.0,9.0,85,0.00,,,0.00,meteohub,2013-06-20 08:34:00,
2013-06-20 04:39:00,81.7,76.3,30.02,East,88,8.0,9.0,84,0.00,,,0.00,meteohub,2013-06-20 08:39:00,
2013-06-20 04:45:00,81.7,76.3,30.02,East,92,6.0,9.0,84,0.00,,,0.00,meteohub,2013-06-20 08:45:00,
2013-06-20 04:50:00,81.7,76.3,30.02,East,90,7.0,9.0,84,0.00,,,0.00,meteohub,2013-06-20 08:50:00,
2013-06-20 04:55:00,81.5,75.9,30.02,East,87,1.0,9.0,83,0.00,,,0.00,meteohub,2013-06-20 08:55:00,
2013-06-20 05:00:00,81.7,76.3,30.02,East,90,3.0,9.0,84,0.00,,,0.00,meteohub,2013-06-20 09:00:00,
2013-06-20 05:06:00,81.9,76.5,30.02,East,92,2.0,8.0,84,0.00,,,0.00,meteohub,2013-06-20 09:06:00,
2013-06-20 05:11:00,81.9,76.5,30.03,East,92,3.0,8.0,84,0.00,,,0.00,meteohub,2013-06-20 09:11:00,
2013-06-20 05:16:00,81.7,76.3,30.02,East,86,2.0,7.0,84,0.00,,,0.00,meteohub,2013-06-20 09:16:00,
2013-06-20 05:21:00,81.9,76.5,30.03,East,88,0.0,7.0,84,0.00,,,0.00,meteohub,2013-06-20 09:21:00,
2013-06-20 05:27:00,81.7,76.3,30.03,ESE,106,4.0,7.0,84,0.00,,,0.00,meteohub,2013-06-20 09:27:00,
2013-06-20 05:32:00,81.7,76.3,30.03,SE,127,2.0,8.0,84,0.00,,,0.00,meteohub,2013-06-20 09:32:00,
2013-06-20 05:37:00,81.7,76.3,30.03,SSE,148,3.0,8.0,84,0.00,,,0.00,meteohub,2013-06-20 09:37:00,
2013-06-20 05:42:00,81.7,75.9,30.03,SSE,150,2.0,8.0,83,0.00,,,0.00,meteohub,2013-06-20 09:42:00,
2013-06-20 05:47:00,81.7,76.3,30.03,SSE,157,0.0,7.0,84,0.00,,,0.00,meteohub,2013-06-20 09:47:00,
2013-06-20 05:52:00,81.7,76.3,30.03,SSE,157,3.0,7.0,84,0.00,,,0.00,meteohub,2013-06-20 09:52:00,
2013-06-20 05:57:00,81.5,75.9,30.03,SSE,157,0.0,7.0,83,0.00,,,0.00,meteohub,2013-06-20 09:57:00,
2013-06-20 06:02:00,81.5,75.9,30.03,SSE,157,0.0,6.0,83,0.00,,,0.00,meteohub,2013-06-20 10:02:00,
2013-06-20 06:07:00,81.7,75.9,30.03,SSE,157,3.0,6.0,83,0.00,,,0.00,meteohub,2013-06-20 10:07:00,
2013-06-20 06:12:00,81.5,75.9,30.04,SSE,157,4.0,5.0,83,0.00,,,0.00,meteohub,2013-06-20 10:12:00,
2013-06-20 06:17:00,81.5,75.4,30.04,SSE,167,6.0,8.0,82,0.00,,,0.00,meteohub,2013-06-20 10:17:00,
2013-06-20 06:22:00,81.5,75.9,30.04,SSE,167,5.0,8.0,83,0.00,,,0.00,meteohub,2013-06-20 10:22:00,
2013-06-20 06:27:00,81.5,76.3,30.04,SSE,165,2.0,8.0,84,0.00,,,0.00,meteohub,2013-06-20 10:27:00,
2013-06-20 06:32:00,81.3,76.1,30.04,SSE,165,4.0,7.0,84,0.00,,,0.00,meteohub,2013-06-20 10:32:00,
2013-06-20 06:37:00,81.1,75.6,30.05,SSE,165,3.0,7.0,83,0.00,,,0.00,meteohub,2013-06-20 10:37:00,
2013-06-20 06:42:00,81.1,75.9,30.05,SSE,165,1.0,6.0,84,0.00,,,0.00,meteohub,2013-06-20 10:42:00,
2013-06-20 06:47:00,81.3,75.7,30.05,SSE,165,2.0,6.0,83,0.00,,,0.00,meteohub,2013-06-20 10:47:00,
2013-06-20 06:52:00,81.3,75.7,30.05,SSE,165,1.0,6.0,83,0.00,,,0.00,meteohub,2013-06-20 10:52:00,
2013-06-20 06:57:00,81.3,75.4,30.05,SSE,165,3.0,6.0,82,0.00,,,0.00,meteohub,2013-06-20 10:57:00,
2013-06-20 07:02:00,81.3,75.4,30.05,SSE,165,1.0,6.0,82,0.00,,,0.00,meteohub,2013-06-20 11:02:00,
2013-06-20 07:07:00,81.5,75.4,30.05,SSE,165,0.0,4.0,82,0.00,,,0.00,meteohub,2013-06-20 11:07:00,
2013-06-20 07:12:00,81.7,75.2,30.05,SSE,165,1.0,4.0,81,0.00,,,0.00,meteohub,2013-06-20 11:12:00,
2013-06-20 07:17:00,81.9,75.7,30.05,SSE,165,1.0,4.0,82,0.00,,,0.00,meteohub,2013-06-20 11:17:00,
2013-06-20 07:22:00,81.9,75.0,30.05,SSE,165,0.0,3.0,80,0.00,,,0.00,meteohub,2013-06-20 11:22:00,
2013-06-20 07:27:00,81.9,75.0,30.05,SSE,165,0.0,3.0,80,0.00,,,0.00,meteohub,2013-06-20 11:27:00,
2013-06-20 07:32:00,82.0,75.2,30.06,SSE,165,0.0,3.0,80,0.00,,,0.00,meteohub,2013-06-20 11:32:00,
2013-06-20 07:37:00,82.2,75.0,30.06,SSE,165,0.0,3.0,79,0.00,,,0.00,meteohub,2013-06-20 11:37:00,
2013-06-20 07:42:00,82.6,75.7,30.06,SSE,165,0.0,2.0,80,0.00,,,0.00,meteohub,2013-06-20 11:42:00,
2013-06-20 07:47:00,82.6,75.4,30.06,SSE,165,0.0,2.0,79,0.00,,,0.00,meteohub,2013-06-20 11:47:00,
2013-06-20 07:52:00,82.8,75.6,30.06,SSE,165,0.0,2.0,79,0.00,,,0.00,meteohub,2013-06-20 11:52:00,
2013-06-20 07:57:00,82.9,75.7,30.06,SSE,165,0.0,2.0,79,0.00,,,0.00,meteohub,2013-06-20 11:57:00,
2013-06-20 08:02:00,83.1,75.2,30.06,SSE,165,0.0,2.0,77,0.00,,,0.00,meteohub,2013-06-20 12:02:00,
2013-06-20 08:07:00,83.8,75.4,30.06,SSE,165,0.0,2.0,76,0.00,,,0.00,meteohub,2013-06-20 12:07:00,
2013-06-20 08:12:00,84.6,75.7,30.06,SSE,165,0.0,1.0,75,0.00,,,0.00,meteohub,2013-06-20 12:12:00,
2013-06-20 08:17:00,84.6,75.0,30.07,SSE,165,0.0,1.0,73,0.00,,,0.00,meteohub,2013-06-20 12:17:00,
2013-06-20 08:22:00,84.6,75.7,30.07,SSE,165,0.0,1.0,75,0.00,,,0.00,meteohub,2013-06-20 12:22:00,
2013-06-20 08:27:00,84.9,76.1,30.07,SSE,165,0.0,1.0,75,0.00,,,0.00,meteohub,2013-06-20 12:27:00,
2013-06-20 08:32:00,85.5,75.7,30.07,SSE,165,0.0,2.0,73,0.00,,,0.00,meteohub,2013-06-20 12:32:00,
2013-06-20 08:37:00,85.8,76.1,30.07,SSE,165,0.0,2.0,73,0.00,,,0.00,meteohub,2013-06-20 12:37:00,
2013-06-20 08:42:00,86.4,76.3,30.08,SSE,165,0.0,2.0,72,0.00,,,0.00,meteohub,2013-06-20 12:42:00,
2013-06-20 08:47:00,87.4,76.5,30.08,SSE,165,0.0,3.0,70,0.00,,,0.00,meteohub,2013-06-20 12:47:00,
2013-06-20 08:52:00,88.0,77.0,30.07,SSE,165,1.0,3.0,70,0.00,,,0.00,meteohub,2013-06-20 12:52:00,
2013-06-20 08:57:00,88.2,76.6,30.08,SSE,165,2.0,4.0,69,0.00,,,0.00,meteohub,2013-06-20 12:57:00,
2013-06-20 09:02:00,88.2,77.2,30.08,SSE,165,2.0,4.0,70,0.00,,,0.00,meteohub,2013-06-20 13:02:00,
2013-06-20 09:07:00,87.8,76.8,30.08,SSE,165,3.0,4.0,70,0.00,,,0.00,meteohub,2013-06-20 13:07:00,
2013-06-20 09:12:00,87.8,76.8,30.09,SSE,165,1.0,6.0,70,0.00,,,0.00,meteohub,2013-06-20 13:12:00,
2013-06-20 09:17:00,87.4,76.5,30.09,SSE,165,1.0,6.0,70,0.00,,,0.00,meteohub,2013-06-20 13:17:00,
2013-06-20 09:22:00,87.3,76.6,30.09,SSE,165,0.0,4.0,71,0.00,,,0.00,meteohub,2013-06-20 13:22:00,
2013-06-20 09:27:00,87.6,76.6,30.09,SSE,165,0.0,4.0,70,0.00,,,0.00,meteohub,2013-06-20 13:27:00,
2013-06-20 09:32:00,87.6,76.6,30.09,SSE,149,1.0,4.0,70,0.00,,,0.00,meteohub,2013-06-20 13:32:00,
2013-06-20 09:37:00,88.0,77.0,30.09,SE,146,1.0,4.0,70,0.00,,,0.00,meteohub,2013-06-20 13:37:00,
2013-06-20 09:42:00,88.3,76.8,30.09,SE,146,0.0,4.0,69,0.00,,,0.00,meteohub,2013-06-20 13:42:00,
2013-06-20 09:47:00,89.1,77.5,30.09,SE,146,2.0,4.0,69,0.00,,,0.00,meteohub,2013-06-20 13:47:00,
2013-06-20 09:52:00,86.5,71.1,30.09,SSW,192,8.0,9.0,60,0.00,,,0.00,meteohub,2013-06-20 13:52:00,
2013-06-20 09:57:00,83.8,70.9,30.09,SSW,210,7.0,10.0,65,0.00,,,0.00,meteohub,2013-06-20 13:57:00,
2013-06-20 10:02:00,82.2,70.5,30.10,West,267,4.0,12.0,68,0.00,,,0.00,meteohub,2013-06-20 14:02:00,
2013-06-20 10:07:00,80.2,71.6,30.10,West,259,4.0,13.0,75,0.00,,,0.00,meteohub,2013-06-20 14:07:00,
2013-06-20 10:12:00,78.4,70.7,30.10,WNW,289,4.0,13.0,77,0.01,,,0.01,meteohub,2013-06-20 14:12:00,
2013-06-20 10:17:00,77.7,70.3,30.10,WNW,288,0.0,13.0,78,0.02,,,0.02,meteohub,2013-06-20 14:17:00,
2013-06-20 10:22:00,78.1,72.5,30.10,WNW,288,0.0,9.0,83,0.03,,,0.03,meteohub,2013-06-20 14:22:00,
2013-06-20 10:27:00,78.3,73.4,30.10,WNW,288,1.0,9.0,85,0.03,,,0.03,meteohub,2013-06-20 14:27:00,
2013-06-20 10:32:00,78.1,73.2,30.10,WNW,288,0.0,3.0,85,0.04,,,0.04,meteohub,2013-06-20 14:32:00,
2013-06-20 10:37:00,78.3,73.8,30.09,WNW,288,0.0,2.0,86,0.04,,,0.04,meteohub,2013-06-20 14:37:00,
2013-06-20 10:42:00,78.1,73.6,30.10,WNW,288,0.0,2.0,86,0.05,,,0.05,meteohub,2013-06-20 14:42:00,
2013-06-20 10:47:00,77.9,73.4,30.10,WNW,288,0.0,1.0,86,0.05,,,0.05,meteohub,2013-06-20 14:47:00,
2013-06-20 10:52:00,77.7,73.2,30.10,WNW,288,0.0,1.0,86,0.05,,,0.05,meteohub,2013-06-20 14:52:00,
2013-06-20 10:57:00,77.5,73.0,30.10,WNW,288,0.0,1.0,86,0.06,,,0.06,meteohub,2013-06-20 14:57:00,
2013-06-20 11:02:00,78.1,73.9,30.10,WNW,288,0.0,0.0,87,0.06,,,0.06,meteohub,2013-06-20 15:02:00,
2013-06-20 11:07:00,78.1,73.9,30.09,WNW,288,0.0,0.0,87,0.06,,,0.06,meteohub,2013-06-20 15:07:00,
2013-06-20 11:12:00,78.4,73.2,30.09,SSW,213,4.0,4.0,84,0.05,,,0.06,meteohub,2013-06-20 15:12:00,
2013-06-20 11:17:00,79.0,73.0,30.09,SSW,213,2.0,5.0,82,0.04,,,0.06,meteohub,2013-06-20 15:17:00,
2013-06-20 11:22:00,79.2,72.5,30.10,SSW,211,3.0,6.0,80,0.04,,,0.07,meteohub,2013-06-20 15:22:00,
2013-06-20 11:27:00,79.7,72.7,30.11,SSW,211,1.0,6.0,79,0.03,,,0.07,meteohub,2013-06-20 15:27:00,
2013-06-20 11:32:00,80.2,72.7,30.11,SSW,207,1.0,6.0,78,0.03,,,0.07,meteohub,2013-06-20 15:32:00,
2013-06-20 11:37:00,81.1,73.9,30.11,SSW,206,0.0,5.0,79,0.02,,,0.07,meteohub,2013-06-20 15:37:00,
2013-06-20 11:42:00,81.9,74.3,30.11,SSW,206,0.0,5.0,78,0.02,,,0.07,meteohub,2013-06-20 15:42:00,
2013-06-20 11:47:00,83.1,75.9,30.11,ESE,109,2.0,6.0,79,0.03,,,0.08,meteohub,2013-06-20 15:47:00,
2013-06-20 11:52:00,83.8,75.4,30.11,ESE,109,0.0,7.0,76,0.03,,,0.08,meteohub,2013-06-20 15:52:00,
2013-06-20 11:57:00,83.7,74.8,30.11,ESE,109,0.0,7.0,75,0.02,,,0.08,meteohub,2013-06-20 15:57:00,
2013-06-20 12:02:00,83.1,73.9,30.11,ESE,109,0.0,7.0,74,0.02,,,0.08,meteohub,2013-06-20 16:02:00,
2013-06-20 12:07:00,82.9,74.1,30.12,ESE,109,0.0,2.0,75,0.03,,,0.09,meteohub,2013-06-20 16:07:00,
2013-06-20 12:12:00,82.8,73.9,30.12,ENE,75,3.0,3.0,75,0.03,,,0.09,meteohub,2013-06-20 16:12:00,
2013-06-20 12:17:00,82.6,74.7,30.12,ENE,69,1.0,7.0,77,0.03,,,0.09,meteohub,2013-06-20 16:17:00,
2013-06-20 12:22:00,83.1,75.2,30.12,ENE,69,0.0,7.0,77,0.02,,,0.09,meteohub,2013-06-20 16:22:00,
2013-06-20 12:27:00,84.0,76.1,30.11,ENE,69,2.0,7.0,77,0.02,,,0.09,meteohub,2013-06-20 16:27:00,
2013-06-20 12:32:00,84.9,75.7,30.11,ENE,69,0.0,3.0,74,0.02,,,0.09,meteohub,2013-06-20 16:32:00,
2013-06-20 12:37:00,86.0,75.9,30.11,ENE,69,1.0,3.0,72,0.03,,,0.10,meteohub,2013-06-20 16:37:00,
2013-06-20 12:42:00,87.1,76.5,30.11,ENE,69,1.0,3.0,71,0.03,,,0.10,meteohub,2013-06-20 16:42:00,
2013-06-20 12:47:00,87.6,76.6,30.11,ENE,69,2.0,3.0,70,0.02,,,0.10,meteohub,2013-06-20 16:47:00,
2013-06-20 12:52:00,88.0,76.1,30.11,ENE,69,0.0,4.0,68,0.02,,,0.10,meteohub,2013-06-20 16:52:00,
2013-06-20 12:57:00,88.2,76.6,30.11,ENE,69,2.0,4.0,69,0.02,,,0.10,meteohub,2013-06-20 16:57:00,
2013-06-20 13:02:00,87.1,75.7,30.11,ENE,69,0.0,4.0,69,0.03,,,0.11,meteohub,2013-06-20 17:02:00,
2013-06-20 13:07:00,86.9,76.3,30.10,ENE,69,1.0,4.0,71,0.02,,,0.11,meteohub,2013-06-20 17:07:00,
2013-06-20 13:12:00,85.8,74.5,30.10,ENE,69,0.0,4.0,69,0.02,,,0.11,meteohub,2013-06-20 17:12:00,
2013-06-20 13:17:00,84.9,74.5,30.09,ENE,69,0.0,4.0,71,0.02,,,0.11,meteohub,2013-06-20 17:17:00,
2013-06-20 13:22:00,84.9,76.8,30.09,ENE,69,0.0,4.0,77,0.02,,,0.11,meteohub,2013-06-20 17:22:00,
2013-06-20 13:27:00,84.2,78.1,30.09,ENE,69,0.0,1.0,82,0.02,,,0.11,meteohub,2013-06-20 17:27:00,
2013-06-20 13:32:00,83.7,78.3,30.08,ENE,69,0.0,1.0,84,0.02,,,0.11,meteohub,2013-06-20 17:32:00,
2013-06-20 13:37:00,83.8,79.2,30.08,ENE,69,0.0,1.0,86,0.02,,,0.12,meteohub,2013-06-20 17:37:00,
2013-06-20 13:42:00,84.0,80.1,30.08,ENE,69,1.0,2.0,88,0.02,,,0.12,meteohub,2013-06-20 17:42:00,
2013-06-20 13:48:00,84.0,79.3,30.08,ENE,69,2.0,3.0,86,0.02,,,0.12,meteohub,2013-06-20 17:48:00,
2013-06-20 13:53:00,84.0,79.0,30.08,ENE,69,1.0,4.0,85,0.02,,,0.12,meteohub,2013-06-20 17:53:00,
2013-06-20 13:58:00,84.6,79.2,30.08,ENE,69,0.0,4.0,84,0.02,,,0.12,meteohub,2013-06-20 17:58:00,
2013-06-20 14:03:00,84.2,77.0,30.08,ENE,76,2.0,4.0,79,0.01,,,0.12,meteohub,2013-06-20 18:03:00,
2013-06-20 14:08:00,84.9,78.1,30.08,WSW,244,2.0,7.0,80,0.02,,,0.13,meteohub,2013-06-20 18:08:00,
2013-06-20 14:13:00,86.2,77.4,30.08,West,265,1.0,10.0,75,0.02,,,0.13,meteohub,2013-06-20 18:13:00,
2013-06-20 14:18:00,86.7,76.1,30.08,WNW,284,4.0,10.0,71,0.02,,,0.13,meteohub,2013-06-20 18:18:00,
2013-06-20 14:23:00,87.6,76.1,30.08,West,279,5.0,6.0,69,0.02,,,0.13,meteohub,2013-06-20 18:23:00,
2013-06-20 14:29:00,88.3,76.5,30.07,West,273,0.0,7.0,68,0.02,,,0.13,meteohub,2013-06-20 18:29:00,
2013-06-20 14:34:00,88.9,76.5,30.08,WNW,302,1.0,7.0,67,0.01,,,0.13,meteohub,2013-06-20 18:34:00,
2013-06-20 14:39:00,89.1,76.3,30.07,WNW,289,2.0,7.0,66,0.01,,,0.13,meteohub,2013-06-20 18:39:00,
2013-06-20 14:44:00,89.4,77.0,30.07,WNW,286,2.0,6.0,67,0.01,,,0.13,meteohub,2013-06-20 18:44:00,
2013-06-20 14:49:00,89.4,75.6,30.07,WNW,294,2.0,8.0,64,0.01,,,0.13,meteohub,2013-06-20 18:49:00,
2013-06-20 14:54:00,90.0,75.2,30.06,West,279,4.0,10.0,62,0.01,,,0.13,meteohub,2013-06-20 18:54:00,
2013-06-20 14:59:00,90.0,73.2,30.06,West,277,3.0,10.0,58,0.01,,,0.13,meteohub,2013-06-20 18:59:00,
2013-06-20 15:04:00,89.8,72.5,30.06,West,279,5.0,10.0,57,0.01,,,0.13,meteohub,2013-06-20 19:04:00,
2013-06-20 15:09:00,90.7,72.3,30.06,WSW,256,5.0,7.0,55,0.00,,,0.13,meteohub,2013-06-20 19:09:00,
2013-06-20 15:14:00,90.9,72.0,30.06,WSW,254,1.0,7.0,54,0.01,,,0.14,meteohub,2013-06-20 19:14:00,
2013-06-20 15:20:00,91.4,71.2,30.06,WSW,254,2.0,7.0,52,0.01,,,0.14,meteohub,2013-06-20 19:20:00,
2013-06-20 15:25:00,91.8,72.1,30.05,SW,217,2.0,7.0,53,0.01,,,0.14,meteohub,2013-06-20 19:25:00,
2013-06-20 15:30:00,91.8,72.7,30.05,West,280,2.0,8.0,54,0.01,,,0.14,meteohub,2013-06-20 19:30:00,
2013-06-20 15:35:00,91.9,73.4,30.05,WNW,284,3.0,8.0,55,0.01,,,0.14,meteohub,2013-06-20 19:35:00,
2013-06-20 15:40:00,91.8,74.3,30.05,NW,306,3.0,7.0,57,0.01,,,0.14,meteohub,2013-06-20 19:40:00,
2013-06-20 15:45:00,91.6,75.7,30.05,WNW,298,6.0,6.0,60,0.02,,,0.15,meteohub,2013-06-20 19:45:00,
2013-06-20 15:50:00,91.6,75.2,30.05,WNW,298,5.0,6.0,59,0.02,,,0.15,meteohub,2013-06-20 19:50:00,
2013-06-20 15:55:00,91.6,75.7,30.05,WNW,298,2.0,6.0,60,0.02,,,0.15,meteohub,2013-06-20 19:55:00,
2013-06-20 16:00:00,92.1,74.7,30.05,WNW,288,5.0,7.0,57,0.02,,,0.15,meteohub,2013-06-20 20:00:00,
2013-06-20 16:05:00,91.6,75.2,30.05,NW,309,5.0,9.0,59,0.02,,,0.15,meteohub,2013-06-20 20:05:00,
2013-06-20 16:10:00,91.0,75.2,30.05,NW,304,6.0,9.0,60,0.01,,,0.15,meteohub,2013-06-20 20:10:00,
2013-06-20 16:15:00,91.6,75.2,30.05,NW,309,2.0,9.0,59,0.01,,,0.15,meteohub,2013-06-20 20:15:00,
2013-06-20 16:21:00,91.9,75.6,30.04,WNW,286,1.0,8.0,59,0.01,,,0.15,meteohub,2013-06-20 20:21:00,
2013-06-20 16:26:00,92.5,75.0,30.04,NW,320,3.0,8.0,57,0.02,,,0.16,meteohub,2013-06-20 20:26:00,
2013-06-20 16:31:00,92.7,75.2,30.04,NNW,340,4.0,8.0,57,0.02,,,0.16,meteohub,2013-06-20 20:31:00,
2013-06-20 16:36:00,92.7,74.7,30.04,WNW,296,2.0,7.0,56,0.02,,,0.16,meteohub,2013-06-20 20:36:00,
2013-06-20 16:41:00,92.1,74.1,30.04,WNW,302,6.0,7.0,56,0.02,,,0.16,meteohub,2013-06-20 20:41:00,
2013-06-20 16:46:00,91.8,73.8,30.04,WNW,292,5.0,9.0,56,0.01,,,0.16,meteohub,2013-06-20 20:46:00,
2013-06-20 16:51:00,91.6,73.0,30.04,WNW,297,1.0,9.0,55,0.01,,,0.16,meteohub,2013-06-20 20:51:00,
2013-06-20 16:56:00,91.8,73.2,30.04,WNW,289,6.0,7.0,55,0.01,,,0.16,meteohub,2013-06-20 20:56:00,
2013-06-20 17:01:00,91.6,72.5,30.04,WNW,289,3.0,7.0,54,0.02,,,0.17,meteohub,2013-06-20 21:01:00,
2013-06-20 17:06:00,91.4,73.4,30.04,WNW,291,3.0,8.0,56,0.02,,,0.17,meteohub,2013-06-20 21:06:00,
2013-06-20 17:11:00,91.9,73.9,30.04,NW,314,2.0,8.0,56,0.02,,,0.17,meteohub,2013-06-20 21:11:00,
2013-06-20 17:16:00,91.8,73.2,30.05,WNW,297,1.0,6.0,55,0.02,,,0.17,meteohub,2013-06-20 21:16:00,
2013-06-20 17:21:00,92.1,73.0,30.05,WNW,298,3.0,6.0,54,0.01,,,0.17,meteohub,2013-06-20 21:21:00,
2013-06-20 17:27:00,92.1,73.6,30.05,WNW,296,2.0,6.0,55,0.01,,,0.17,meteohub,2013-06-20 21:27:00,
2013-06-20 17:32:00,91.8,73.2,30.04,NW,317,2.0,7.0,55,0.01,,,0.17,meteohub,2013-06-20 21:32:00,
2013-06-20 17:37:00,91.9,72.9,30.04,NW,324,4.0,7.0,54,0.01,,,0.17,meteohub,2013-06-20 21:37:00,
2013-06-20 17:42:00,91.9,73.9,30.04,NW,318,0.0,7.0,56,0.01,,,0.17,meteohub,2013-06-20 21:42:00,
2013-06-20 17:47:00,92.5,73.4,30.04,NW,318,2.0,7.0,54,0.01,,,0.17,meteohub,2013-06-20 21:47:00,
2013-06-20 17:52:00,91.6,73.6,30.04,NW,317,1.0,6.0,56,0.01,,,0.17,meteohub,2013-06-20 21:52:00,
2013-06-20 17:57:00,91.2,73.4,30.04,NW,305,2.0,9.0,56,0.00,,,0.17,meteohub,2013-06-20 21:57:00,
2013-06-20 18:02:00,91.0,72.1,30.04,NW,306,0.0,9.0,54,0.00,,,0.17,meteohub,2013-06-20 22:02:00,
2013-06-20 18:07:00,91.9,72.3,30.04,NW,306,1.0,9.0,53,0.01,,,0.18,meteohub,2013-06-20 22:07:00,
2013-06-20 18:12:00,92.5,71.8,30.04,WNW,303,1.0,7.0,51,0.01,,,0.18,meteohub,2013-06-20 22:12:00,
2013-06-20 18:17:00,91.9,72.3,30.04,WNW,302,1.0,6.0,53,0.01,,,0.18,meteohub,2013-06-20 22:17:00,
2013-06-20 18:22:00,91.4,72.3,30.04,WNW,303,2.0,6.0,54,0.01,,,0.18,meteohub,2013-06-20 22:22:00,
2013-06-20 18:27:00,90.9,73.0,30.04,WNW,303,4.0,6.0,56,0.01,,,0.18,meteohub,2013-06-20 22:27:00,
2013-06-20 18:32:00,90.9,72.0,30.04,WNW,294,0.0,5.0,54,0.01,,,0.18,meteohub,2013-06-20 22:32:00,
2013-06-20 18:37:00,91.2,72.9,30.04,WNW,294,4.0,6.0,55,0.01,,,0.18,meteohub,2013-06-20 22:37:00,
2013-06-20 18:42:00,90.7,72.3,30.05,WNW,300,3.0,6.0,55,0.01,,,0.18,meteohub,2013-06-20 22:42:00,
2013-06-20 18:47:00,90.3,72.0,30.05,WNW,300,0.0,6.0,55,0.01,,,0.18,meteohub,2013-06-20 22:47:00,
2013-06-20 18:52:00,90.7,72.9,30.05,WNW,302,0.0,6.0,56,0.01,,,0.18,meteohub,2013-06-20 22:52:00,
2013-06-20 18:57:00,90.3,73.0,30.05,WNW,302,3.0,5.0,57,0.01,,,0.18,meteohub,2013-06-20 22:57:00,
2013-06-20 19:02:00,90.1,72.9,30.06,WNW,302,3.0,5.0,57,0.01,,,0.18,meteohub,2013-06-20 23:02:00,
2013-06-20 19:07:00,90.3,71.4,30.05,WNW,302,3.0,4.0,54,0.00,,,0.18,meteohub,2013-06-20 23:07:00,
2013-06-20 19:12:00,90.5,73.2,30.06,WNW,302,1.0,4.0,57,0.00,,,0.18,meteohub,2013-06-20 23:12:00,
2013-06-20 19:17:00,90.0,73.2,30.06,WNW,302,3.0,4.0,58,0.00,,,0.18,meteohub,2013-06-20 23:17:00,
2013-06-20 19:22:00,89.8,73.0,30.06,WNW,302,0.0,5.0,58,0.00,,,0.18,meteohub,2013-06-20 23:22:00,
2013-06-20 19:27:00,90.0,72.1,30.05,NNW,329,0.0,5.0,56,0.00,,,0.18,meteohub,2013-06-20 23:27:00,
2013-06-20 19:32:00,90.0,72.1,30.06,NNW,329,0.0,5.0,56,0.00,,,0.18,meteohub,2013-06-20 23:32:00,
2013-06-20 19:37:00,89.8,73.0,30.06,NNW,329,2.0,5.0,58,0.00,,,0.18,meteohub,2013-06-20 23:37:00,
2013-06-20 19:42:00,89.4,73.8,30.06,NNW,329,1.0,3.0,60,0.00,,,0.18,meteohub,2013-06-20 23:42:00,
2013-06-20 19:47:00,89.2,73.6,30.07,NNW,329,0.0,4.0,60,0.00,,,0.18,meteohub,2013-06-20 23:47:00,
2013-06-20 19:52:00,89.2,73.9,30.06,NNW,329,1.0,4.0,61,0.00,,,0.18,meteohub,2013-06-20 23:52:00,
2013-06-20 19:57:00,89.1,73.9,30.06,NNW,329,0.0,4.0,61,0.01,,,0.19,meteohub,2013-06-20 23:57:00,
2013-06-20 20:02:00,88.2,73.9,30.07,NNW,329,1.0,6.0,63,0.01,,,0.19,meteohub,2013-06-21 00:02:00,
2013-06-20 20:07:00,87.6,73.9,30.06,NNW,329,1.0,6.0,64,0.01,,,0.19,meteohub,2013-06-21 00:07:00,
2013-06-20 20:12:00,87.3,73.0,30.07,NNW,329,0.0,6.0,63,0.01,,,0.19,meteohub,2013-06-21 00:12:00,
2013-06-20 20:17:00,86.7,74.5,30.07,East,81,0.0,8.0,67,0.01,,,0.19,meteohub,2013-06-21 00:17:00,
2013-06-20 20:22:00,85.6,74.7,30.07,ENE,72,3.0,8.0,70,0.01,,,0.19,meteohub,2013-06-21 00:22:00,
2013-06-20 20:27:00,84.7,74.3,30.07,East,97,6.0,9.0,71,0.01,,,0.19,meteohub,2013-06-21 00:27:00,
2013-06-20 20:32:00,84.0,73.6,30.07,East,88,2.0,10.0,71,0.01,,,0.19,meteohub,2013-06-21 00:32:00,
2013-06-20 20:37:00,83.7,72.9,30.07,ENE,74,3.0,10.0,70,0.01,,,0.19,meteohub,2013-06-21 00:37:00,
2013-06-20 20:42:00,83.7,73.2,30.07,ENE,69,0.0,10.0,71,0.01,,,0.19,meteohub,2013-06-21 00:42:00,
2013-06-20 20:47:00,83.3,72.5,30.07,ENE,69,0.0,9.0,70,0.01,,,0.19,meteohub,2013-06-21 00:47:00,
2013-06-20 20:52:00,83.1,72.7,30.07,ENE,69,0.0,8.0,71,0.00,,,0.19,meteohub,2013-06-21 00:52:00,
2013-06-20 20:57:00,82.8,72.0,30.07,ENE,67,0.0,7.0,70,0.00,,,0.19,meteohub,2013-06-21 00:57:00,
2013-06-20 21:02:00,82.6,72.1,30.07,ENE,67,0.0,7.0,71,0.00,,,0.19,meteohub,2013-06-21 01:02:00,
2013-06-20 21:07:00,82.4,72.5,30.07,ENE,67,5.0,7.0,72,0.00,,,0.19,meteohub,2013-06-21 01:07:00,
2013-06-20 21:12:00,82.2,72.7,30.08,ENE,67,2.0,5.0,73,0.00,,,0.19,meteohub,2013-06-21 01:12:00,
2013-06-20 21:17:00,81.9,72.3,30.08,ENE,65,0.0,8.0,73,0.00,,,0.19,meteohub,2013-06-21 01:17:00,
2013-06-20 21:22:00,81.7,72.1,30.07,ENE,65,2.0,8.0,73,0.00,,,0.19,meteohub,2013-06-21 01:22:00,
2013-06-20 21:27:00,81.7,72.5,30.07,ENE,77,2.0,8.0,74,0.00,,,0.19,meteohub,2013-06-21 01:27:00,
2013-06-20 21:32:00,81.5,72.9,30.07,ENE,76,0.0,8.0,75,0.00,,,0.19,meteohub,2013-06-21 01:32:00,
2013-06-20 21:37:00,81.3,72.7,30.07,ENE,75,3.0,7.0,75,0.00,,,0.19,meteohub,2013-06-21 01:37:00,
2013-06-20 21:42:00,81.1,72.5,30.07,ENE,69,4.0,7.0,75,0.00,,,0.19,meteohub,2013-06-21 01:42:00,
2013-06-20 21:47:00,81.1,72.5,30.07,ENE,66,0.0,7.0,75,0.00,,,0.19,meteohub,2013-06-21 01:47:00,
2013-06-20 21:52:00,81.0,72.7,30.07,East,83,3.0,8.0,76,0.00,,,0.19,meteohub,2013-06-21 01:52:00,
2013-06-20 21:57:00,80.8,72.5,30.07,East,80,5.0,8.0,76,0.00,,,0.19,meteohub,2013-06-21 01:57:00,
2013-06-20 22:02:00,80.8,72.9,30.08,East,80,2.0,8.0,77,0.00,,,0.19,meteohub,2013-06-21 02:02:00,
2013-06-20 22:07:00,80.6,72.3,30.08,East,100,10.0,10.0,76,0.00,,,0.19,meteohub,2013-06-21 02:07:00,
2013-06-20 22:12:00,80.6,72.0,30.08,ENE,61,7.0,15.0,75,0.00,,,0.19,meteohub,2013-06-21 02:12:00,
2013-06-20 22:17:00,80.6,71.6,30.08,East,94,14.0,22.0,74,0.00,,,0.19,meteohub,2013-06-21 02:17:00,
2013-06-20 22:22:00,80.4,71.4,30.08,East,88,5.0,22.0,74,0.00,,,0.19,meteohub,2013-06-21 02:22:00,
2013-06-20 22:27:00,80.2,72.0,30.09,East,83,6.0,22.0,76,0.00,,,0.19,meteohub,2013-06-21 02:27:00,
2013-06-20 22:32:00,80.1,71.8,30.09,East,84,5.0,17.0,76,0.00,,,0.19,meteohub,2013-06-21 02:32:00,
2013-06-20 22:37:00,79.7,71.4,30.09,East,81,7.0,15.0,76,0.00,,,0.19,meteohub,2013-06-21 02:37:00,
2013-06-20 22:42:00,79.5,71.6,30.09,ENE,67,4.0,13.0,77,0.00,,,0.19,meteohub,2013-06-21 02:42:00,
2013-06-20 22:47:00,79.5,71.6,30.09,East,97,5.0,13.0,77,0.00,,,0.19,meteohub,2013-06-21 02:47:00,
2013-06-20 22:52:00,79.3,71.4,30.09,East,96,8.0,11.0,77,0.00,,,0.19,meteohub,2013-06-21 02:52:00,
2013-06-20 22:57:00,79.3,72.0,30.09,East,99,3.0,13.0,78,0.00,,,0.19,meteohub,2013-06-21 02:57:00,
2013-06-20 23:02:00,79.3,72.0,30.09,East,87,5.0,13.0,78,0.00,,,0.19,meteohub,2013-06-21 03:02:00,
2013-06-20 23:07:00,79.3,72.3,30.09,East,92,6.0,11.0,79,0.00,,,0.19,meteohub,2013-06-21 03:07:00,
2013-06-20 23:12:00,79.3,72.7,30.09,East,86,6.0,10.0,80,0.00,,,0.19,meteohub,2013-06-21 03:12:00,
2013-06-20 23:17:00,79.3,72.3,30.09,East,96,3.0,10.0,79,0.00,,,0.19,meteohub,2013-06-21 03:17:00,
2013-06-20 23:22:00,79.5,72.9,30.09,East,88,0.0,10.0,80,0.00,,,0.19,meteohub,2013-06-21 03:22:00,
2013-06-20 23:27:00,79.7,73.0,30.09,SE,130,2.0,9.0,80,0.00,,,0.19,meteohub,2013-06-21 03:27:00,
2013-06-20 23:32:00,79.9,73.2,30.09,SE,134,3.0,8.0,80,0.00,,,0.19,meteohub,2013-06-21 03:32:00,
2013-06-20 23:37:00,79.9,73.2,30.08,SE,129,2.0,8.0,80,0.00,,,0.19,meteohub,2013-06-21 03:37:00,
2013-06-20 23:42:00,79.9,73.2,30.09,SE,142,4.0,7.0,80,0.00,,,0.19,meteohub,2013-06-21 03:42:00,
2013-06-20 23:47:00,79.9,73.2,30.09,SE,146,4.0,7.0,80,0.00,,,0.19,meteohub,2013-06-21 03:47:00,
2013-06-20 23:52:00,79.9,72.9,30.09,SSE,149,1.0,6.0,79,0.00,,,0.19,meteohub,2013-06-21 03:52:00,
2013-06-20 23:57:00,79.9,73.2,30.09,SSE,150,0.0,6.0,80,0.00,,,0.19,meteohub,2013-06-21 03:57:00,